Home   Weather   Güstrow   Past weeks

Flag for Germany Past Weather in Güstrow, Mecklenburg-Western Pomerania, Germany — Yesterday and Last 2 Weeks

Now
43 °F

Passing clouds.


Feels Like: 37 °F
Forecast: 42 / 49 °F
Wind: 9 mph from Southwest

Location: Laage

Current Time: Dec 8, 2016 at 1:22:43 am

Latest Report: Dec 8, 2016 at 12:20 am


Visibility: N/A

Pressure: 30.21 "Hg

Humidity: 81%

Dew Point: 37 °F

Location of GüstrowLocation

Past Weather in Güstrow — Graph

°F

Güstrow Temperature Yesterday

Maximum temperature yesterday: 41 °F (at 9:20 pm)
Minimum temperature yesterday: 32 °F (at 8:20 am)
Average temperature yesterday: 36 °F

High & Low Weather Summary for the Past Weeks

 TemperatureHumidityPressure
High54 °F (Nov 23, 11:20 am)100% (Nov 23, 1:20 am)30.60 "Hg (Nov 23, 1:20 am)
Low23 °F (Dec 3, 8:20 am)52% (Nov 28, 11:52 am)29.71 "Hg (Dec 1, 8:20 pm)
Average37 °F86%30.21 "Hg
* Reported Nov 22 11:20 pm — Dec 7 11:20 pm, Güstrow, Weather by CustomWeather, © 2016

Note: Actual official high and low records may vary slightly from our data, if they occured in-between our weather recording intervals... More about our weather records

Advertising

Güstrow Weather History for the Previous 24 Hours

Scroll right to see more
 ConditionsComfort  
Time TempWeatherWind HumidityBarometerVisibility
11:20 pm
Wed, Dec 7
41 °FPassing clouds.10 mph87%30.21 "HgN/A
10:20 pm41 °FPassing clouds.14 mph87%30.21 "HgN/A
9:20 pm41 °FOvercast.13 mph81%30.21 "HgN/A
8:20 pm39 °FOvercast.13 mph87%30.21 "HgN/A
7:20 pm39 °FMostly cloudy.12 mph87%30.24 "HgN/A
6:20 pm37 °FLight rain. Overcast.10 mph93%30.24 "Hg5 mi
5:47 pm37 °FLight rain. Mostly cloudy.12 mph87%30.27 "Hg5 mi
5:20 pm37 °FDrizzle. Overcast.10 mph87%30.27 "Hg4 mi
5:00 pm37 °FDrizzle. Mostly cloudy.10 mph87%30.27 "Hg4 mi
4:20 pm37 °FDrizzle. Mostly cloudy.12 mph87%30.30 "Hg4 mi
3:20 pm37 °FDrizzle. Partly sunny.8 mph81%30.30 "HgN/A
2:20 pm37 °FDrizzle. Mostly cloudy.8 mph81%30.30 "HgN/A
1:20 pm37 °FDrizzle. Partly sunny.8 mph75%30.33 "HgN/A
12:20 pm37 °FPartly sunny.10 mph75%30.36 "HgN/A
11:20 am37 °FPartly sunny.9 mph81%30.39 "HgN/A
10:20 am36 °FPartly sunny.8 mph87%30.42 "HgN/A
9:48 am34 °FPartly sunny.8 mph93%30.42 "HgN/A
9:02 am34 °FFog.8 mph93%30.42 "Hg3 mi
8:20 am32 °FIce fog.5 mph100%30.45 "Hg2 mi
6:20 am34 °FFog.5 mph100%30.45 "Hg2 mi
6:01 am34 °FFog.5 mph100%30.45 "Hg1 mi
5:20 am34 °FFog.5 mph100%30.48 "Hg1 mi
4:20 am34 °FFog.5 mph100%30.51 "Hg1 mi
3:20 am34 °FDrizzle. Fog.7 mph100%30.51 "Hg1 mi
2:20 am34 °FDrizzle. Fog.7 mph100%30.51 "Hg0 mi
1:20 am36 °FFog.6 mph93%30.51 "Hg1 mi
Weather by CustomWeather, © 2016

See weather overviewHow to use our weather pages